Overview Statistics Trail Chart Weather Telemetry Raw packets
 

This is the latest recevied weather packets stored in our database for station/object EA3AGY-13. If no packets are shown the sender has not sent any weather packets the latest 10 day(s).

<< 4 5 6 7 8 9 10 >>
Time Temp. Humidity Pressure Rain* Wind** Luminosity Snow
1788335081 18.33° C 46% 1023.1 hPa 0 mm - - -
1788334478 17.78° C 47% 1023.1 hPa 0 mm - - -
1788333876 17.78° C 48% 1023.1 hPa 0 mm - - -
1788332671 16.67° C 49% 1023 hPa 0 mm - - -
1788330864 15.56° C 53% 1022.8 hPa 0 mm - - -
1788330262 15° C 54% 1022.7 hPa 0 mm - - -
1788329660 15° C 53% 1022.8 hPa 0 mm - - -
1788329057 14.44° C 53% 1022.5 hPa 0 mm - - -
1788327250 13.33° C 49% 1022.4 hPa 0 mm - - -
1788326047 13.33° C 49% 1022.4 hPa 0 mm - - -
1788325443 13.33° C 50% 1022.2 hPa 0 mm - - -
1788323637 13.33° C 50% 1022.1 hPa 0 mm - - -
1788322431 13.33° C 49% 1022.3 hPa 0 mm - - -
1788321226 13.89° C 50% 1022.3 hPa 0 mm - - -
1788320022 14.44° C 50% 1022.2 hPa 0 mm - - -
1788318215 14.44° C 50% 1022.4 hPa 0 mm - - -
1788317010 14.44° C 51% 1022.4 hPa 0 mm - - -
1788315805 14.44° C 50% 1022.5 hPa 0 mm - - -
1788315205 14.44° C 51% 1022.3 hPa 0 mm - - -
1788314602 14.44° C 53% 1022.4 hPa 0 mm - - -
1788313395 14.44° C 51% 1022.5 hPa 0 mm - - -
1788312793 14.44° C 50% 1022.6 hPa 0 mm - - -
1788312191 14.44° C 49% 1022.8 hPa 0 mm - - -
1788311589 14.44° C 49% 1022.6 hPa 0 mm - - -
1788310986 14.44° C 49% 1022.7 hPa 0 mm - - -

* Rain since midnight (hover to see other rain measurements)
** Current wind speed in m/s (hover to see current wind gust speed)